Location: Deurze
(52.9838°N, 6.6090°E)
Time: 19:09:00
(UTC+00:00)

Cosmos 2297 - Pass Details

Date: 11 March 2026
Orbit: 834 x 858 km, 71.0° (Epoch: 20 April)

Event Time Altitude Azimuth Distance (km) Brightness Sun altitude
Rises 19:04:32 0° 177° (S) 3,376 6.7 -14.9°
Reaches altitude 10° 19:07:11 10° 167° (SSE) 2,449 5.8 -15.2°
Maximum altitude 19:12:05 32° 106° (ESE) 1,413 4.3 -16.0°
Drops below altitude 10° 19:17:03 10° 45° (NE) 2,479 5.9 -16.7°
Sets 19:19:44 0° 36° (NE) 3,423 6.7 -17.1°
